STARLINK-32897, 62967

Orbit data source: Space-Track

STARLINK-32897, 62967 is a payload satellite owned by SpaceX/Seattle (US) in LEO that was launched on Tue, 11 Feb 2025 UTC via an FALCON 9 launch vehicle from the Air Force Western Test Range (AFWTR). Payload-class satellites include a variety of spacecraft equipped with specific instruments for various scientific and technological missions. These include communications satellites like Starlink; space stations such as the ISS; scientific satellites like the Hubble; Earth observation satellites from companies like Planet Labs, Umbra, and HawkEye 360; GPS; miniature CubeSats for education and research; and military/defense satellites.

Loading next visibility...
Identifier
62967, 2025-029V
Orbit
LEO
Country
Flag of USUS
Related business
Manufacturer
SpaceX/Seattle
Mission
Operational Commercial Communications
Bus & Motor
STARLINK V2M, Unknown motor
Mass
730 kg wet, ~700 kg dry
Launch date (UTC)
2025-02-11 (1 year ago)
Launch vehicle
FALCON 9
Launch site
Air Force Western Test Range (AFWTR)
Object type
Payload
Rocket body
Debris
Shape & HBR
Box + 2 Pan, 17.7 m
Radar Cross Section
33.884 m², Large (>1 m²)

Expand to show TLE details & history
Last TLE update: 15 hours ago

TLE from 15 hours ago
0 STARLINK-32897
1 62967U 25029V   26171.20869715  .00019352  00000-0  58239-3 0  9993
2 62967  53.1582 114.8496 0001248  95.4804 264.6341 15.34400439 77030
Epoch: 2026-06-20T05:00Z
TLE epoch observation values (Epoch: 2026-06-20T05:00:31.433Z)
Latitude
-0.00003°
Longitude
131.29199°
Altitude
463.683 km
Speed
7.636 km/s
True Right ascension
07h 39m 23s
True Declination
0° 00' 00"
Sunlit
Object was in daylight at epoch
Visualization orbit readout
Latitude
Unknown
Longitude
Unknown
Altitude
Unknown
Speed
Unknown
Apparent Right ascension
Unknown
Apparent Declination
Unknown
Sunlit
N/A
Visualization observer readout
Local Sidereal Time
07:15:30
Azimuth
Unknown
Elevation
Unknown
Doppler factor
Unknown
Orbital elements
Apogee altitude
463.813 km
Perigee altitude
462.105 km
Semi-major axis
6,841.096 km
Eccentricity
0.00012
Inclination
53.1582°
RAAN
114.8496°
Arg. of periapsis
95.4804°
True anomaly
264.61986°
Mean anomaly
264.6341°
Eccentric anomaly
264.62698°
Mean motion
3.83579 °/min
Orbital period
93.85 mins
BSTAR
0.00058239
Loading maneuver chart data...
Computing Atmospheric mass density...
Loading historical data...
Loading historical data...
Loading historical data...
Loading historical data...
Loading historical data...
Loading historical data...
Loading historical data...

Documentation

Showing up to 5 results
|